contact:dominique.lefevre@mio.osupytheas.fr, maurice.libes@osupytheas.fr, didier.mallarino@osupytheas.fr
Project:EMSO http://www.emso-fr.org/EMSO-France
Depth: 2436.0 m
Title:EMSO Ligure Ouest : Data MII capteur MICROCAT
DateTime_Computer,Latitude,Longitude,Temperature,Conductivity,Pressure,DateTime_Instrument
DateTime_Computer,Latitude,Longitude,degC,S m-1,dbar,DateTime_Instrument
2022-05-03T00:02:10Z,42.805,6.029,13.2996,4.60035,2470.217,2022-5-03T02:03:50Z
2022-05-03T00:05:14Z,42.805,6.029,13.2993,4.60036,2470.203,2022-5-03T02:06:53Z
2022-05-03T00:08:17Z,42.805,6.029,13.3000,4.60035,2470.18,2022-5-03T02:09:57Z
2022-05-03T00:11:20Z,42.805,6.029,13.2996,4.60035,2470.24,2022-5-03T02:13:00Z
2022-05-03T00:14:23Z,42.805,6.029,13.2995,4.60036,2470.18,2022-5-03T02:16:03Z
2022-05-03T00:17:26Z,42.805,6.029,13.2996,4.60037,2470.18,2022-5-03T02:19:06Z
2022-05-03T00:20:29Z,42.805,6.029,13.2997,4.60035,2470.18,2022-5-03T02:22:09Z
2022-05-03T00:23:32Z,42.805,6.029,13.3004,4.60036,2470.156,2022-5-03T02:25:12Z
2022-05-03T00:26:35Z,42.805,6.029,13.2995,4.60035,2470.194,2022-5-03T02:28:15Z
2022-05-03T00:29:38Z,42.805,6.029,13.2996,4.60035,2470.194,2022-5-03T02:31:18Z
2022-05-03T00:32:42Z,42.805,6.029,13.2998,4.60036,2470.156,2022-5-03T02:34:21Z
2022-05-03T00:35:45Z,42.805,6.029,13.2997,4.60034,2470.171,2022-5-03T02:37:25Z
2022-05-03T00:38:48Z,42.805,6.029,13.2997,4.60035,2470.18,2022-5-03T02:40:28Z
2022-05-03T00:41:51Z,42.805,6.029,13.2997,4.60036,2470.24,2022-5-03T02:43:31Z
2022-05-03T00:44:54Z,42.805,6.029,13.2998,4.60036,2470.194,2022-5-03T02:46:34Z
2022-05-03T00:47:57Z,42.805,6.029,13.2996,4.60035,2470.194,2022-5-03T02:49:37Z
2022-05-03T00:51:00Z,42.805,6.029,13.2998,4.60035,2470.171,2022-5-03T02:52:40Z
2022-05-03T00:54:03Z,42.805,6.029,13.2997,4.60033,2470.217,2022-5-03T02:55:43Z
2022-05-03T00:57:07Z,42.805,6.029,13.2996,4.60034,2470.156,2022-5-03T02:58:46Z
2022-05-03T01:00:10Z,42.805,6.029,13.2998,4.60034,2470.156,2022-5-03T03:01:49Z
2022-05-03T01:03:13Z,42.805,6.029,13.2993,4.60034,2470.133,2022-5-03T03:04:53Z
2022-05-03T01:06:16Z,42.805,6.029,13.2996,4.60034,2470.18,2022-5-03T03:07:56Z
2022-05-03T01:09:19Z,42.805,6.029,13.2997,4.60033,2470.133,2022-5-03T03:10:59Z
2022-05-03T01:12:22Z,42.805,6.029,13.2998,4.60033,2470.18,2022-5-03T03:14:02Z
2022-05-03T01:15:25Z,42.805,6.029,13.3000,4.60034,2470.156,2022-5-03T03:17:05Z
2022-05-03T01:18:28Z,42.805,6.029,13.2998,4.60033,2470.133,2022-5-03T03:20:08Z
2022-05-03T01:21:31Z,42.805,6.029,13.2998,4.60034,2470.18,2022-5-03T03:23:11Z
2022-05-03T01:24:34Z,42.805,6.029,13.2998,4.60035,2470.143,2022-5-03T03:26:14Z
2022-05-03T01:27:38Z,42.805,6.029,13.2996,4.60034,2470.217,2022-5-03T03:29:17Z
2022-05-03T01:30:41Z,42.805,6.029,13.2996,4.60033,2470.156,2022-5-03T03:32:21Z
2022-05-03T01:33:44Z,42.805,6.029,13.2999,4.60034,2470.156,2022-5-03T03:35:24Z
2022-05-03T01:36:47Z,42.805,6.029,13.2998,4.60034,2470.147,2022-5-03T03:38:27Z
2022-05-03T01:39:50Z,42.805,6.029,13.2993,4.60033,2470.133,2022-5-03T03:41:30Z
2022-05-03T01:42:53Z,42.805,6.029,13.2998,4.60033,2470.171,2022-5-03T03:44:33Z
2022-05-03T01:45:56Z,42.805,6.029,13.2996,4.60035,2470.133,2022-5-03T03:47:36Z
2022-05-03T01:48:59Z,42.805,6.029,13.2998,4.60033,2470.156,2022-5-03T03:50:39Z
2022-05-03T01:52:03Z,42.805,6.029,13.2999,4.60034,2470.133,2022-5-03T03:53:42Z
2022-05-03T01:55:06Z,42.805,6.029,13.2997,4.60034,2470.171,2022-5-03T03:56:46Z
2022-05-03T01:58:09Z,42.805,6.029,13.2998,4.60034,2470.171,2022-5-03T03:59:49Z
2022-05-03T02:01:12Z,42.805,6.029,13.2993,4.60033,2470.133,2022-5-03T04:02:52Z
2022-05-03T02:04:15Z,42.805,6.029,13.2996,4.60034,2470.18,2022-5-03T04:05:55Z
2022-05-03T02:07:18Z,42.805,6.029,13.2997,4.60034,2470.18,2022-5-03T04:08:58Z
2022-05-03T02:10:21Z,42.805,6.029,13.2994,4.60033,2470.156,2022-5-03T04:12:01Z
2022-05-03T02:13:24Z,42.805,6.029,13.2995,4.60033,2470.133,2022-5-03T04:15:04Z
2022-05-03T02:16:27Z,42.805,6.029,13.2998,4.60034,2470.156,2022-5-03T04:18:07Z
2022-05-03T02:19:31Z,42.805,6.029,13.2996,4.60033,2470.171,2022-5-03T04:21:10Z
2022-05-03T02:22:34Z,42.805,6.029,13.2998,4.60033,2470.18,2022-5-03T04:24:14Z
2022-05-03T02:25:37Z,42.805,6.029,13.2999,4.60034,2470.156,2022-5-03T04:27:17Z
2022-05-03T02:28:40Z,42.805,6.029,13.2999,4.60033,2470.171,2022-5-03T04:30:20Z
2022-05-03T02:31:43Z,42.805,6.029,13.2996,4.60033,2470.124,2022-5-03T04:33:23Z
2022-05-03T02:34:46Z,42.805,6.029,13.2998,4.60035,2470.133,2022-5-03T04:36:26Z
2022-05-03T02:37:49Z,42.805,6.029,13.2994,4.60033,2470.194,2022-5-03T04:39:29Z
2022-05-03T02:40:52Z,42.805,6.029,13.2995,4.60034,2470.133,2022-5-03T04:42:32Z
2022-05-03T02:43:56Z,42.805,6.029,13.2999,4.60033,2470.1,2022-5-03T04:45:35Z
2022-05-03T02:46:59Z,42.805,6.029,13.3002,4.60033,2470.124,2022-5-03T04:48:39Z
2022-05-03T02:50:02Z,42.805,6.029,13.2997,4.60033,2470.11,2022-5-03T04:51:42Z
2022-05-03T02:53:05Z,42.805,6.029,13.2998,4.60033,2470.133,2022-5-03T04:54:45Z
2022-05-03T02:56:08Z,42.805,6.029,13.2996,4.60034,2470.171,2022-5-03T04:57:48Z
2022-05-03T02:59:11Z,42.805,6.029,13.2998,4.60033,2470.156,2022-5-03T05:00:51Z
2022-05-03T03:02:14Z,42.805,6.029,13.3000,4.60033,2470.133,2022-5-03T05:03:54Z
2022-05-03T03:05:17Z,42.805,6.029,13.2998,4.60034,2470.147,2022-5-03T05:06:57Z
2022-05-03T03:08:20Z,42.805,6.029,13.2995,4.60033,2470.133,2022-5-03T05:10:00Z
2022-05-03T03:11:24Z,42.805,6.029,13.2994,4.60033,2470.18,2022-5-03T05:13:03Z
2022-05-03T03:14:27Z,42.805,6.029,13.2997,4.60033,2470.11,2022-5-03T05:16:07Z
2022-05-03T03:17:30Z,42.805,6.029,13.2998,4.60033,2470.133,2022-5-03T05:19:10Z
2022-05-03T03:20:33Z,42.805,6.029,13.2996,4.60033,2470.147,2022-5-03T05:22:13Z
2022-05-03T03:23:36Z,42.805,6.029,13.2996,4.60034,2470.147,2022-5-03T05:25:16Z
2022-05-03T03:26:39Z,42.805,6.029,13.2997,4.60033,2470.133,2022-5-03T05:28:19Z
2022-05-03T03:29:42Z,42.805,6.029,13.2998,4.60033,2470.171,2022-5-03T05:31:22Z
2022-05-03T03:32:45Z,42.805,6.029,13.2998,4.60034,2470.133,2022-5-03T05:34:25Z
2022-05-03T03:35:49Z,42.805,6.029,13.2993,4.60033,2470.156,2022-5-03T05:37:28Z
2022-05-03T03:38:52Z,42.805,6.029,13.2997,4.60035,2470.156,2022-5-03T05:40:32Z
2022-05-03T03:41:55Z,42.805,6.029,13.2995,4.60035,2470.11,2022-5-03T05:43:35Z
2022-05-03T03:44:58Z,42.805,6.029,13.2998,4.60034,2470.171,2022-5-03T05:46:38Z
2022-05-03T03:48:01Z,42.805,6.029,13.2996,4.60033,2470.156,2022-5-03T05:49:41Z
2022-05-03T03:51:04Z,42.805,6.029,13.2998,4.60033,2470.18,2022-5-03T05:52:44Z
2022-05-03T03:54:07Z,42.805,6.029,13.2997,4.60033,2470.147,2022-5-03T05:55:47Z
2022-05-03T03:57:10Z,42.805,6.029,13.3000,4.60033,2470.133,2022-5-03T05:58:50Z
2022-05-03T04:00:13Z,42.805,6.029,13.2998,4.60033,2470.096,2022-5-03T06:01:53Z
2022-05-03T04:03:17Z,42.805,6.029,13.2994,4.60033,2470.217,2022-5-03T06:04:56Z
2022-05-03T04:06:20Z,42.805,6.029,13.2995,4.60034,2470.18,2022-5-03T06:08:00Z
2022-05-03T04:09:23Z,42.805,6.029,13.2993,4.60033,2470.156,2022-5-03T06:11:03Z
2022-05-03T04:12:26Z,42.805,6.029,13.2994,4.60034,2470.18,2022-5-03T06:14:06Z
2022-05-03T04:15:29Z,42.805,6.029,13.3000,4.60034,2470.18,2022-5-03T06:17:09Z
2022-05-03T04:18:32Z,42.805,6.029,13.2997,4.60034,2470.156,2022-5-03T06:20:12Z
2022-05-03T04:21:35Z,42.805,6.029,13.2998,4.60033,2470.18,2022-5-03T06:23:15Z
2022-05-03T04:24:38Z,42.805,6.029,13.3000,4.60034,2470.133,2022-5-03T06:26:18Z
2022-05-03T04:27:41Z,42.805,6.029,13.2997,4.60034,2470.147,2022-5-03T06:29:21Z
2022-05-03T04:30:45Z,42.805,6.029,13.2997,4.60033,2470.227,2022-5-03T06:32:24Z
2022-05-03T04:33:48Z,42.805,6.029,13.2999,4.60033,2470.156,2022-5-03T06:35:28Z
2022-05-03T04:36:51Z,42.805,6.029,13.2997,4.60033,2470.133,2022-5-03T06:38:31Z
2022-05-03T04:39:54Z,42.805,6.029,13.2995,4.60033,2470.18,2022-5-03T06:41:34Z
2022-05-03T04:42:57Z,42.805,6.029,13.2998,4.60033,2470.194,2022-5-03T06:44:37Z
2022-05-03T04:46:00Z,42.805,6.029,13.2994,4.60033,2470.18,2022-5-03T06:47:40Z
2022-05-03T04:49:03Z,42.805,6.029,13.2996,4.60036,2470.18,2022-5-03T06:50:43Z
2022-05-03T04:52:06Z,42.805,6.029,13.2998,4.60033,2470.194,2022-5-03T06:53:46Z
2022-05-03T04:55:10Z,42.805,6.029,13.2996,4.60033,2470.24,2022-5-03T06:56:49Z
2022-05-03T04:58:13Z,42.805,6.029,13.2997,4.60033,2470.18,2022-5-03T06:59:53Z
2022-05-03T05:01:16Z,42.805,6.029,13.2996,4.60033,2470.194,2022-5-03T07:02:56Z
2022-05-03T05:04:19Z,42.805,6.029,13.2998,4.60033,2470.18,2022-5-03T07:05:59Z
2022-05-03T05:07:22Z,42.805,6.029,13.2994,4.60033,2470.203,2022-5-03T07:09:02Z
2022-05-03T05:10:25Z,42.805,6.029,13.2995,4.60034,2470.203,2022-5-03T07:12:05Z
2022-05-03T05:13:28Z,42.805,6.029,13.2995,4.60036,2470.203,2022-5-03T07:15:08Z
2022-05-03T05:16:31Z,42.805,6.029,13.2997,4.60034,2470.203,2022-5-03T07:18:11Z
2022-05-03T05:19:34Z,42.805,6.029,13.2998,4.60033,2470.203,2022-5-03T07:21:14Z
2022-05-03T05:22:38Z,42.805,6.029,13.2994,4.60034,2470.203,2022-5-03T07:24:17Z
2022-05-03T05:25:41Z,42.805,6.029,13.2996,4.60033,2470.203,2022-5-03T07:27:21Z
2022-05-03T05:28:44Z,42.805,6.029,13.2996,4.60035,2470.217,2022-5-03T07:30:24Z
2022-05-03T05:31:47Z,42.805,6.029,13.2997,4.60036,2470.217,2022-5-03T07:33:27Z
2022-05-03T05:34:50Z,42.805,6.029,13.2999,4.60036,2470.217,2022-5-03T07:36:30Z
2022-05-03T05:37:53Z,42.805,6.029,13.2995,4.60036,2470.203,2022-5-03T07:39:33Z
2022-05-03T05:40:56Z,42.805,6.029,13.2992,4.60033,2470.203,2022-5-03T07:42:36Z
2022-05-03T05:43:59Z,42.805,6.029,13.3000,4.60035,2470.203,2022-5-03T07:45:39Z
2022-05-03T05:47:03Z,42.805,6.029,13.2999,4.60033,2470.227,2022-5-03T07:48:42Z
2022-05-03T05:50:06Z,42.805,6.029,13.2997,4.60035,2470.203,2022-5-03T07:51:46Z
2022-05-03T05:53:09Z,42.805,6.029,13.2999,4.60035,2470.227,2022-5-03T07:54:49Z
2022-05-03T05:56:12Z,42.805,6.029,13.2996,4.60034,2470.227,2022-5-03T07:57:52Z
2022-05-03T05:59:15Z,42.805,6.029,13.2999,4.60038,2470.227,2022-5-03T08:00:55Z
2022-05-03T06:02:18Z,42.805,6.029,13.2994,4.60034,2470.264,2022-5-03T08:03:58Z
2022-05-03T06:05:21Z,42.805,6.029,13.2996,4.60036,2470.227,2022-5-03T08:07:01Z
2022-05-03T06:08:24Z,42.805,6.029,13.2999,4.60033,2470.203,2022-5-03T08:10:04Z
2022-05-03T06:11:27Z,42.805,6.029,13.2998,4.60036,2470.217,2022-5-03T08:13:07Z
2022-05-03T06:14:31Z,42.805,6.029,13.2997,4.60036,2470.236,2022-5-03T08:16:10Z
2022-05-03T06:17:34Z,42.805,6.029,13.3001,4.60033,2470.227,2022-5-03T08:19:14Z
2022-05-03T06:20:37Z,42.805,6.029,13.2998,4.60035,2470.227,2022-5-03T08:22:17Z
2022-05-03T06:23:40Z,42.805,6.029,13.2999,4.60036,2470.227,2022-5-03T08:25:20Z
2022-05-03T06:26:43Z,42.805,6.029,13.2996,4.60035,2470.25,2022-5-03T08:28:23Z
2022-05-03T06:29:46Z,42.805,6.029,13.2996,4.60034,2470.25,2022-5-03T08:31:26Z
2022-05-03T06:32:49Z,42.805,6.029,13.2993,4.60036,2470.227,2022-5-03T08:34:29Z
2022-05-03T06:35:52Z,42.805,6.029,13.2997,4.60033,2470.203,2022-5-03T08:37:32Z
2022-05-03T06:38:55Z,42.805,6.029,13.2998,4.60033,2470.213,2022-5-03T08:40:35Z
2022-05-03T06:41:59Z,42.805,6.029,13.2997,4.60035,2470.25,2022-5-03T08:43:38Z
2022-05-03T06:45:02Z,42.805,6.029,13.2995,4.60036,2470.227,2022-5-03T08:46:42Z
2022-05-03T06:48:05Z,42.805,6.029,13.2997,4.60035,2470.25,2022-5-03T08:49:45Z
2022-05-03T06:51:08Z,42.805,6.029,13.2998,4.60035,2470.273,2022-5-03T08:52:48Z
2022-05-03T06:54:11Z,42.805,6.029,13.2998,4.60036,2470.25,2022-5-03T08:55:51Z
2022-05-03T06:57:14Z,42.805,6.029,13.2994,4.60034,2470.24,2022-5-03T08:58:54Z
2022-05-03T07:00:17Z,42.805,6.029,13.2998,4.60033,2470.25,2022-5-03T09:01:57Z
2022-05-03T07:03:20Z,42.805,6.029,13.2996,4.60034,2470.264,2022-5-03T09:05:00Z
2022-05-03T07:06:23Z,42.805,6.029,13.2996,4.60036,2470.203,2022-5-03T09:08:03Z
2022-05-03T07:09:27Z,42.805,6.029,13.2997,4.60034,2470.25,2022-5-03T09:11:06Z
2022-05-03T07:12:30Z,42.805,6.029,13.2996,4.60034,2470.25,2022-5-03T09:14:10Z
2022-05-03T07:15:33Z,42.805,6.029,13.2997,4.60035,2470.227,2022-5-03T09:17:13Z
2022-05-03T07:18:36Z,42.805,6.029,13.2996,4.60036,2470.25,2022-5-03T09:20:16Z
2022-05-03T07:21:39Z,42.805,6.029,13.2998,4.60035,2470.273,2022-5-03T09:23:19Z
2022-05-03T07:24:42Z,42.805,6.029,13.3000,4.60035,2470.273,2022-5-03T09:26:22Z
2022-05-03T07:27:45Z,42.805,6.029,13.2998,4.60036,2470.227,2022-5-03T09:29:25Z
2022-05-03T07:30:48Z,42.805,6.029,13.2999,4.60035,2470.264,2022-5-03T09:32:28Z
2022-05-03T07:33:52Z,42.805,6.029,13.2998,4.60036,2470.227,2022-5-03T09:35:31Z
2022-05-03T07:36:55Z,42.805,6.029,13.2999,4.60035,2470.227,2022-5-03T09:38:35Z
2022-05-03T07:39:58Z,42.805,6.029,13.3000,4.60036,2470.25,2022-5-03T09:41:38Z
2022-05-03T07:43:01Z,42.805,6.029,13.2998,4.60033,2470.227,2022-5-03T09:44:41Z
2022-05-03T07:46:04Z,42.805,6.029,13.2998,4.60036,2470.297,2022-5-03T09:47:44Z
2022-05-03T07:49:07Z,42.805,6.029,13.2996,4.60034,2470.25,2022-5-03T09:50:47Z
2022-05-03T07:52:10Z,42.805,6.029,13.2998,4.60034,2470.264,2022-5-03T09:53:50Z
2022-05-03T07:55:13Z,42.805,6.029,13.3001,4.60036,2470.227,2022-5-03T09:56:53Z
2022-05-03T07:58:16Z,42.805,6.029,13.2995,4.60036,2470.25,2022-5-03T09:59:56Z
2022-05-03T08:01:20Z,42.805,6.029,13.2996,4.60034,2470.227,2022-5-03T10:02:59Z
2022-05-03T08:04:23Z,42.805,6.029,13.2997,4.60037,2470.24,2022-5-03T10:06:03Z
2022-05-03T08:07:26Z,42.805,6.029,13.2996,4.60037,2470.273,2022-5-03T10:09:06Z
2022-05-03T08:10:29Z,42.805,6.029,13.2998,4.60037,2470.287,2022-5-03T10:12:09Z
2022-05-03T08:13:32Z,42.805,6.029,13.2995,4.60035,2470.227,2022-5-03T10:15:12Z
2022-05-03T08:16:35Z,42.805,6.029,13.2997,4.60035,2470.297,2022-5-03T10:18:15Z
2022-05-03T08:19:38Z,42.805,6.029,13.3002,4.60038,2470.24,2022-5-03T10:21:18Z
2022-05-03T08:22:41Z,42.805,6.029,13.2997,4.60038,2470.25,2022-5-03T10:24:21Z
2022-05-03T08:25:45Z,42.805,6.029,13.2998,4.60035,2470.25,2022-5-03T10:27:24Z
2022-05-03T08:28:48Z,42.805,6.029,13.2995,4.60035,2470.227,2022-5-03T10:30:28Z
2022-05-03T08:31:51Z,42.805,6.029,13.2998,4.60037,2470.273,2022-5-03T10:33:31Z
2022-05-03T08:34:54Z,42.805,6.029,13.3000,4.60036,2470.287,2022-5-03T10:36:34Z
2022-05-03T08:37:57Z,42.805,6.029,13.3001,4.60035,2470.25,2022-5-03T10:39:37Z
2022-05-03T08:41:00Z,42.805,6.029,13.2996,4.60039,2470.273,2022-5-03T10:42:40Z
2022-05-03T08:44:03Z,42.805,6.029,13.2995,4.60037,2470.24,2022-5-03T10:45:43Z
2022-05-03T08:47:06Z,42.805,6.029,13.2998,4.60037,2470.217,2022-5-03T10:48:46Z
2022-05-03T08:50:10Z,42.805,6.029,13.2998,4.60036,2470.273,2022-5-03T10:51:49Z
2022-05-03T08:53:13Z,42.805,6.029,13.2998,4.60035,2470.25,2022-5-03T10:54:53Z
2022-05-03T08:56:16Z,42.805,6.029,13.2999,4.60037,2470.25,2022-5-03T10:57:56Z
2022-05-03T08:59:19Z,42.805,6.029,13.2997,4.60035,2470.273,2022-5-03T11:00:59Z
2022-05-03T09:02:22Z,42.805,6.029,13.2997,4.60036,2470.217,2022-5-03T11:04:02Z
2022-05-03T09:05:25Z,42.805,6.029,13.2996,4.60036,2470.203,2022-5-03T11:07:05Z
2022-05-03T09:08:28Z,42.805,6.029,13.2997,4.60038,2470.203,2022-5-03T11:10:08Z
2022-05-03T09:11:31Z,42.805,6.029,13.2996,4.60036,2470.24,2022-5-03T11:13:11Z
2022-05-03T09:14:34Z,42.805,6.029,13.2996,4.60039,2470.25,2022-5-03T11:16:14Z
2022-05-03T09:17:38Z,42.805,6.029,13.2996,4.60035,2470.203,2022-5-03T11:19:17Z
2022-05-03T09:20:41Z,42.805,6.029,13.2999,4.60034,2470.18,2022-5-03T11:22:21Z
2022-05-03T09:23:44Z,42.805,6.029,13.3000,4.60035,2470.227,2022-5-03T11:25:24Z
2022-05-03T09:26:47Z,42.805,6.029,13.2997,4.60036,2470.217,2022-5-03T11:28:27Z
2022-05-03T09:29:50Z,42.805,6.029,13.2998,4.60036,2470.194,2022-5-03T11:31:30Z
2022-05-03T09:32:53Z,42.805,6.029,13.2996,4.60036,2470.24,2022-5-03T11:34:33Z
2022-05-03T09:35:56Z,42.805,6.029,13.2998,4.60036,2470.264,2022-5-03T11:37:36Z
2022-05-03T09:38:59Z,42.805,6.029,13.2998,4.60035,2470.24,2022-5-03T11:40:39Z
2022-05-03T09:42:03Z,42.805,6.029,13.2993,4.60037,2470.18,2022-5-03T11:43:42Z
2022-05-03T09:45:06Z,42.805,6.029,13.2995,4.60037,2470.24,2022-5-03T11:46:46Z
2022-05-03T09:48:09Z,42.805,6.029,13.3001,4.60035,2470.227,2022-5-03T11:49:49Z
2022-05-03T09:51:12Z,42.805,6.029,13.2999,4.60036,2470.171,2022-5-03T11:52:52Z
2022-05-03T09:54:15Z,42.805,6.029,13.2998,4.60034,2470.18,2022-5-03T11:55:55Z
2022-05-03T09:57:18Z,42.805,6.029,13.2997,4.60034,2470.194,2022-5-03T11:58:58Z
2022-05-03T10:00:21Z,42.805,6.029,13.2997,4.60037,2470.227,2022-5-03T12:02:01Z
2022-05-03T10:03:24Z,42.805,6.029,13.2995,4.60036,2470.217,2022-5-03T12:05:04Z
2022-05-03T10:06:27Z,42.805,6.029,13.2995,4.60033,2470.156,2022-5-03T12:08:07Z
2022-05-03T10:09:31Z,42.805,6.029,13.2998,4.60033,2470.171,2022-5-03T12:11:11Z
2022-05-03T10:12:34Z,42.805,6.029,13.2998,4.60035,2470.133,2022-5-03T12:14:14Z
2022-05-03T10:15:37Z,42.805,6.029,13.2993,4.60033,2470.156,2022-5-03T12:17:17Z
2022-05-03T10:18:40Z,42.805,6.029,13.2998,4.60034,2470.156,2022-5-03T12:20:20Z
2022-05-03T10:21:43Z,42.805,6.029,13.2995,4.60035,2470.18,2022-5-03T12:23:23Z
2022-05-03T10:24:46Z,42.805,6.029,13.2996,4.60034,2470.156,2022-5-03T12:26:26Z
2022-05-03T10:27:49Z,42.805,6.029,13.2996,4.60033,2470.18,2022-5-03T12:29:29Z
2022-05-03T10:30:52Z,42.805,6.029,13.2998,4.60033,2470.133,2022-5-03T12:32:32Z
2022-05-03T10:33:56Z,42.805,6.029,13.2998,4.60033,2470.124,2022-5-03T12:35:35Z
2022-05-03T10:36:59Z,42.805,6.029,13.2996,4.60034,2470.156,2022-5-03T12:38:39Z
2022-05-03T10:40:02Z,42.805,6.029,13.2996,4.60035,2470.194,2022-5-03T12:41:42Z
2022-05-03T10:43:05Z,42.805,6.029,13.2998,4.60034,2470.156,2022-5-03T12:44:45Z
2022-05-03T10:46:08Z,42.805,6.029,13.3000,4.60034,2470.133,2022-5-03T12:47:48Z
2022-05-03T10:49:11Z,42.805,6.029,13.2997,4.60035,2470.171,2022-5-03T12:50:51Z
2022-05-03T10:52:14Z,42.805,6.029,13.2999,4.60033,2470.147,2022-5-03T12:53:54Z
2022-05-03T10:55:17Z,42.805,6.029,13.2998,4.60036,2470.147,2022-5-03T12:56:57Z
2022-05-03T10:58:21Z,42.805,6.029,13.2998,4.60036,2470.11,2022-5-03T13:00:00Z
2022-05-03T11:01:24Z,42.805,6.029,13.2997,4.60035,2470.124,2022-5-03T13:03:04Z
2022-05-03T11:04:27Z,42.805,6.029,13.2996,4.60033,2470.087,2022-5-03T13:06:07Z
2022-05-03T11:07:30Z,42.805,6.029,13.3000,4.60034,2470.147,2022-5-03T13:09:10Z
2022-05-03T11:10:33Z,42.805,6.029,13.2998,4.60035,2470.11,2022-5-03T13:12:13Z
2022-05-03T11:13:36Z,42.805,6.029,13.2997,4.60035,2470.124,2022-5-03T13:15:16Z
2022-05-03T11:16:39Z,42.805,6.029,13.3000,4.60036,2470.133,2022-5-03T13:18:19Z
2022-05-03T11:19:42Z,42.805,6.029,13.2994,4.60034,2470.133,2022-5-03T13:21:22Z
2022-05-03T11:22:46Z,42.805,6.029,13.2993,4.60035,2470.11,2022-5-03T13:24:25Z
2022-05-03T11:25:49Z,42.805,6.029,13.2998,4.60038,2470.1,2022-5-03T13:27:29Z
2022-05-03T11:28:52Z,42.805,6.029,13.2996,4.60037,2470.11,2022-5-03T13:30:32Z
2022-05-03T11:31:55Z,42.805,6.029,13.2994,4.60033,2470.11,2022-5-03T13:33:35Z
2022-05-03T11:34:58Z,42.805,6.029,13.2996,4.60033,2470.1,2022-5-03T13:36:38Z
2022-05-03T11:38:01Z,42.805,6.029,13.2998,4.60033,2470.11,2022-5-03T13:39:41Z
2022-05-03T11:41:04Z,42.805,6.029,13.2996,4.60033,2470.087,2022-5-03T13:42:44Z
2022-05-03T11:44:07Z,42.805,6.029,13.2999,4.60035,2470.087,2022-5-03T13:45:47Z
2022-05-03T11:47:11Z,42.805,6.029,13.2998,4.60033,2470.1,2022-5-03T13:48:50Z
2022-05-03T11:50:14Z,42.805,6.029,13.2993,4.60033,2470.087,2022-5-03T13:51:54Z
2022-05-03T11:53:17Z,42.805,6.029,13.2996,4.60033,2470.063,2022-5-03T13:54:57Z
2022-05-03T11:56:20Z,42.805,6.029,13.2997,4.60034,2470.1,2022-5-03T13:58:00Z
2022-05-03T11:59:23Z,42.805,6.029,13.2998,4.60033,2470.11,2022-5-03T14:01:03Z
2022-05-03T12:02:26Z,42.805,6.029,13.2997,4.60034,2470.087,2022-5-03T14:04:06Z
2022-05-03T12:05:29Z,42.805,6.029,13.2998,4.60034,2470.063,2022-5-03T14:07:09Z
2022-05-03T12:08:32Z,42.805,6.029,13.2996,4.60034,2470.063,2022-5-03T14:10:12Z
2022-05-03T12:11:35Z,42.805,6.029,13.2998,4.60033,2470.063,2022-5-03T14:13:15Z
2022-05-03T12:14:39Z,42.805,6.029,13.2999,4.60034,2470.04,2022-5-03T14:16:19Z
2022-05-03T12:17:42Z,42.805,6.029,13.2996,4.60034,2470.1,2022-5-03T14:19:22Z
2022-05-03T12:20:45Z,42.805,6.029,13.2998,4.60034,2470.04,2022-5-03T14:22:25Z
2022-05-03T12:23:48Z,42.805,6.029,13.3000,4.60036,2470.077,2022-5-03T14:25:28Z
2022-05-03T12:26:51Z,42.805,6.029,13.3000,4.60034,2470.04,2022-5-03T14:28:31Z
2022-05-03T12:29:54Z,42.805,6.029,13.2998,4.60033,2470.053,2022-5-03T14:31:34Z
2022-05-03T12:32:57Z,42.805,6.029,13.2995,4.60033,2470.053,2022-5-03T14:34:37Z
2022-05-03T12:36:00Z,42.805,6.029,13.2997,4.60033,2470.063,2022-5-03T14:37:40Z
2022-05-03T12:39:04Z,42.805,6.029,13.2999,4.60033,2470.063,2022-5-03T14:40:43Z
2022-05-03T12:42:07Z,42.805,6.029,13.2998,4.60034,2470.04,2022-5-03T14:43:47Z
2022-05-03T12:45:10Z,42.805,6.029,13.2996,4.60033,2470.053,2022-5-03T14:46:50Z
2022-05-03T12:48:13Z,42.805,6.029,13.2998,4.60033,2470.017,2022-5-03T14:49:53Z
2022-05-03T12:51:16Z,42.805,6.029,13.2996,4.60035,2470.04,2022-5-03T14:52:56Z
2022-05-03T12:54:19Z,42.805,6.029,13.2997,4.60033,2470.04,2022-5-03T14:55:59Z
2022-05-03T12:57:22Z,42.805,6.029,13.2996,4.60033,2470.04,2022-5-03T14:59:02Z
2022-05-03T13:00:25Z,42.805,6.029,13.2998,4.60037,2470.04,2022-5-03T15:02:05Z
2022-05-03T13:03:29Z,42.805,6.029,13.2998,4.60033,2470.017,2022-5-03T15:05:08Z
2022-05-03T13:06:32Z,42.805,6.029,13.2997,4.60034,2470.017,2022-5-03T15:08:12Z
2022-05-03T13:09:35Z,42.805,6.029,13.2996,4.60033,2470.017,2022-5-03T15:11:15Z
2022-05-03T13:12:38Z,42.805,6.029,13.2995,4.60033,2470.007,2022-5-03T15:14:18Z
2022-05-03T13:15:41Z,42.805,6.029,13.2998,4.60033,2469.993,2022-5-03T15:17:21Z
2022-05-03T13:18:44Z,42.805,6.029,13.3000,4.60033,2470.04,2022-5-03T15:20:24Z
2022-05-03T13:21:47Z,42.805,6.029,13.2998,4.60033,2469.993,2022-5-03T15:23:27Z
2022-05-03T13:24:50Z,42.805,6.029,13.3002,4.60033,2470.003,2022-5-03T15:26:30Z
2022-05-03T13:27:53Z,42.805,6.029,13.3000,4.60033,2470.04,2022-5-03T15:29:33Z
2022-05-03T13:30:57Z,42.805,6.029,13.2997,4.60035,2470.03,2022-5-03T15:32:37Z
2022-05-03T13:34:00Z,42.805,6.029,13.2997,4.60033,2470.03,2022-5-03T15:35:40Z
2022-05-03T13:37:03Z,42.805,6.029,13.2997,4.60033,2469.993,2022-5-03T15:38:43Z
2022-05-03T13:40:06Z,42.805,6.029,13.2997,4.60034,2470.017,2022-5-03T15:41:46Z
2022-05-03T13:43:09Z,42.805,6.029,13.2999,4.60034,2470.017,2022-5-03T15:44:49Z
2022-05-03T13:46:12Z,42.805,6.029,13.2997,4.60037,2469.97,2022-5-03T15:47:52Z
2022-05-03T13:49:15Z,42.805,6.029,13.2996,4.60034,2470.007,2022-5-03T15:50:55Z
2022-05-03T13:52:18Z,42.805,6.029,13.2998,4.60037,2469.97,2022-5-03T15:53:58Z
2022-05-03T13:55:22Z,42.805,6.029,13.2998,4.60034,2470.017,2022-5-03T15:57:02Z
2022-05-03T13:58:25Z,42.805,6.029,13.2996,4.60033,2469.993,2022-5-03T16:00:05Z
2022-05-03T14:01:28Z,42.805,6.029,13.2998,4.60033,2469.97,2022-5-03T16:03:08Z
2022-05-03T14:04:31Z,42.805,6.029,13.2996,4.60033,2470.007,2022-5-03T16:06:11Z
2022-05-03T14:07:34Z,42.805,6.029,13.2998,4.60033,2469.97,2022-5-03T16:09:14Z
2022-05-03T14:10:37Z,42.805,6.029,13.2995,4.60033,2469.97,2022-5-03T16:12:17Z
2022-05-03T14:13:40Z,42.805,6.029,13.2996,4.60033,2469.97,2022-5-03T16:15:20Z
2022-05-03T14:16:43Z,42.805,6.029,13.2996,4.60034,2469.97,2022-5-03T16:18:23Z
2022-05-03T14:19:47Z,42.805,6.029,13.2998,4.60034,2469.984,2022-5-03T16:21:26Z
2022-05-03T14:22:50Z,42.805,6.029,13.2995,4.60034,2469.984,2022-5-03T16:24:30Z
2022-05-03T14:25:53Z,42.805,6.029,13.2995,4.60035,2470.007,2022-5-03T16:27:33Z
2022-05-03T14:28:56Z,42.805,6.029,13.2998,4.60034,2470.04,2022-5-03T16:30:36Z
2022-05-03T14:31:59Z,42.805,6.029,13.3000,4.60032,2469.947,2022-5-03T16:33:39Z
2022-05-03T14:35:02Z,42.805,6.029,13.2997,4.60033,2469.97,2022-5-03T16:36:42Z
2022-05-03T14:38:05Z,42.805,6.029,13.2999,4.60034,2470.007,2022-5-03T16:39:45Z
2022-05-03T14:41:08Z,42.805,6.029,13.2994,4.60033,2469.993,2022-5-03T16:42:48Z
2022-05-03T14:44:12Z,42.805,6.029,13.2996,4.60033,2469.97,2022-5-03T16:45:51Z
2022-05-03T14:47:15Z,42.805,6.029,13.2998,4.60032,2469.947,2022-5-03T16:48:55Z
2022-05-03T14:50:18Z,42.805,6.029,13.2996,4.60033,2470.007,2022-5-03T16:51:58Z
2022-05-03T14:53:21Z,42.805,6.029,13.2996,4.60033,2470.007,2022-5-03T16:55:01Z
2022-05-03T14:56:24Z,42.805,6.029,13.2997,4.60035,2469.97,2022-5-03T16:58:04Z
2022-05-03T14:59:27Z,42.805,6.029,13.2996,4.60033,2469.993,2022-5-03T17:01:07Z
2022-05-03T15:02:30Z,42.805,6.029,13.2999,4.60033,2470.007,2022-5-03T17:04:10Z
2022-05-03T15:05:33Z,42.805,6.029,13.2998,4.60033,2470.007,2022-5-03T17:07:13Z
2022-05-03T15:08:36Z,42.805,6.029,13.3000,4.60034,2469.97,2022-5-03T17:10:16Z
2022-05-03T15:11:40Z,42.805,6.029,13.3000,4.60033,2469.984,2022-5-03T17:13:20Z
2022-05-03T15:14:43Z,42.805,6.029,13.2996,4.60033,2469.984,2022-5-03T17:16:23Z